When you browse on this site, cookies collect data to enhance your experience and personalize the content and advertising you see.
Visit our Privacy Policy to learn more. By continuing to use the site, you agree to this use of cookies and data.
  • In Portugal
  • List of Countries
  • For 7 days
  • Water Temperature
  • Satellite Maps
  • Weather Map
  • Weather Widgets
  • user-avatar
    Login

    Hourly Weather Veszprem

    Today, 18 July, Thursday

    Time Temperature Precipitation Wind Pressure Humidity
    00:00 +19°C° 0.9 mm 1 mps 736 mmHg 80%
    01:00 +19°C° 0 mm 1 mps 737 mmHg 81%
    02:00 +19°C° 0.5 mm 1 mps 736 mmHg 82%
    03:00 +19°C° 0.5 mm 1 mps 736 mmHg 83%
    04:00 +17°C° 0.5 mm 0 mps 736 mmHg 84%
    05:00 +17°C° 0.3 mm 0 mps 737 mmHg 82%
    06:00 +18°C° 0.3 mm 0 mps 737 mmHg 80%
    07:00 +21°C° 0 mm 1 mps 737 mmHg 74%
    08:00 +22°C° 0.8 mm 1 mps 737 mmHg 74%
    09:00 +22°C° 0.8 mm 1 mps 738 mmHg 73%
    10:00 +23°C° 0.8 mm 1 mps 738 mmHg 72%
    11:00 +23°C° 1.2 mm 2 mps 738 mmHg 70%
    12:00 +24°C° 1.2 mm 2 mps 737 mmHg 68%
    13:00 +25°C° 1.2 mm 2 mps 737 mmHg 65%
    14:00 +25°C° 0.2 mm 2 mps 737 mmHg 63%
    15:00 +26°C° 0.2 mm 1 mps 737 mmHg 61%
    16:00 +26°C° 0.2 mm 1 mps 737 mmHg 58%
    17:00 +25°C° 0.2 mm 1 mps 737 mmHg 65%
    18:00 +23°C° 0.2 mm 1 mps 737 mmHg 71%
    19:00 +22°C° 0.2 mm 1 mps 737 mmHg 78%
    20:00 +21°C° 0.1 mm 1 mps 737 mmHg 80%
    21:00 +20°C° 0.1 mm 1 mps 738 mmHg 81%
    22:00 +20°C° 0.1 mm 1 mps 738 mmHg 83%
    23:00 +19°C° 0.1 mm 1 mps 739 mmHg 84%

    Tomorrow, 19 July, Friday

    Time Temperature Precipitation Wind Pressure Humidity
    00:00 +19°C° 0.1 mm 1 mps 739 mmHg 85%
    01:00 +19°C° 0.1 mm 1 mps 739 mmHg 86%
    02:00 +18°C° 0.1 mm 1 mps 739 mmHg 87%
    03:00 +18°C° 0.1 mm 1 mps 739 mmHg 87%
    04:00 +16°C° 0.1 mm 0 mps 739 mmHg 87%
    05:00 +17°C° 0 mm 0 mps 739 mmHg 83%
    06:00 +19°C° 0 mm 0 mps 740 mmHg 80%
    07:00 +22°C° 0 mm 1 mps 740 mmHg 76%
    08:00 +23°C° 0.3 mm 1 mps 740 mmHg 71%
    09:00 +25°C° 0.3 mm 1 mps 740 mmHg 65%
    10:00 +26°C° 0.3 mm 2 mps 740 mmHg 60%
    11:00 +27°C° 0.1 mm 2 mps 740 mmHg 55%
    12:00 +28°C° 0.1 mm 2 mps 740 mmHg 50%
    13:00 +29°C° 0.1 mm 2 mps 740 mmHg 44%
    14:00 +29°C° 0 mm 2 mps 740 mmHg 45%
    15:00 +29°C° 0 mm 2 mps 740 mmHg 46%
    16:00 +29°C° 0 mm 2 mps 739 mmHg 47%
    17:00 +27°C° 0 mm 1 mps 739 mmHg 53%
    18:00 +26°C° 0 mm 1 mps 740 mmHg 58%
    19:00 +24°C° 0 mm 1 mps 740 mmHg 64%
    20:00 +23°C° 0.1 mm 1 mps 740 mmHg 67%
    21:00 +22°C° 0.1 mm 1 mps 740 mmHg 69%
    22:00 +21°C° 0.1 mm 1 mps 740 mmHg 72%
    23:00 +21°C° 0 mm 1 mps 740 mmHg 73%

    Day after tomorrow, 20 July, Saturday

    Time Temperature Precipitation Wind Pressure Humidity
    00:00 +20°C° 0 mm 1 mps 740 mmHg 74%
    01:00 +20°C° 0 mm 1 mps 740 mmHg 76%
    02:00 +20°C° 0 mm 1 mps 740 mmHg 77%
    03:00 +20°C° 0 mm 1 mps 740 mmHg 78%
    04:00 +19°C° 0 mm 1 mps 741 mmHg 79%
    05:00 +21°C° 0 mm 1 mps 741 mmHg 76%
    06:00 +22°C° 0 mm 1 mps 741 mmHg 73%
    07:00 +23°C° 0 mm 2 mps 741 mmHg 69%
    08:00 +25°C° 0 mm 2 mps 742 mmHg 65%
    09:00 +26°C° 0 mm 3 mps 742 mmHg 60%
    10:00 +28°C° 0 mm 3 mps 742 mmHg 55%
    11:00 +29°C° 0 mm 3 mps 742 mmHg 53%
    12:00 +30°C° 0 mm 3 mps 742 mmHg 50%
    13:00 +30°C° 0 mm 4 mps 741 mmHg 48%
    14:00 +30°C° 0 mm 4 mps 741 mmHg 48%
    15:00 +30°C° 0 mm 4 mps 741 mmHg 49%
    16:00 +32°C° 0 mm 4 mps 741 mmHg 49%
    17:00 +29°C° 0 mm 3 mps 741 mmHg 56%
    18:00 +27°C° 0 mm 3 mps 741 mmHg 63%
    19:00 +26°C° 0 mm 3 mps 741 mmHg 70%
    20:00 +25°C° 0 mm 3 mps 741 mmHg 72%
    21:00 +24°C° 0 mm 2 mps 741 mmHg 75%
    22:00 +23°C° 0 mm 2 mps 742 mmHg 77%
    23:00 +21°C° 0 mm 2 mps 742 mmHg 77%

    21 July, Sunday

    Time Temperature Precipitation Wind Pressure Humidity
    00:00 +21°C° 0 mm 2 mps 742 mmHg 76%
    01:00 +21°C° 0 mm 2 mps 742 mmHg 76%
    02:00 +20°C° 0 mm 2 mps 742 mmHg 76%
    03:00 +21°C° 0 mm 1 mps 741 mmHg 77%
    04:00 +21°C° 0 mm 1 mps 741 mmHg 78%
    05:00 +22°C° 0 mm 1 mps 742 mmHg 75%
    06:00 +23°C° 0 mm 2 mps 742 mmHg 72%
    07:00 +24°C° 0 mm 2 mps 742 mmHg 70%
    08:00 +26°C° 0 mm 2 mps 743 mmHg 64%
    09:00 +28°C° 0 mm 2 mps 743 mmHg 57%
    10:00 +29°C° 0 mm 2 mps 743 mmHg 51%
    11:00 +30°C° 0 mm 2 mps 743 mmHg 47%
    12:00 +31°C° 0 mm 2 mps 743 mmHg 44%
    13:00 +32°C° 0 mm 2 mps 742 mmHg 40%
    14:00 +32°C° 0 mm 2 mps 742 mmHg 41%
    15:00 +32°C° 0 mm 2 mps 743 mmHg 43%
    16:00 +32°C° 0 mm 2 mps 743 mmHg 44%
    17:00 +30°C° 0 mm 2 mps 743 mmHg 50%
    18:00 +28°C° 0 mm 1 mps 743 mmHg 55%
    19:00 +27°C° 0 mm 1 mps 743 mmHg 61%
    20:00 +26°C° 0 mm 1 mps 743 mmHg 63%
    21:00 +25°C° 0 mm 1 mps 743 mmHg 66%
    22:00 +24°C° 0 mm 1 mps 743 mmHg 68%
    23:00 +24°C° 0 mm 1 mps 743 mmHg 69%

    22 July, Monday

    Time Temperature Precipitation Wind Pressure Humidity
    00:00 +23°C° 0 mm 2 mps 743 mmHg 71%
    01:00 +23°C° 0 mm 2 mps 744 mmHg 72%
    02:00 +23°C° 0 mm 2 mps 744 mmHg 74%
    03:00 +21°C° 0 mm 2 mps 744 mmHg 77%
    04:00 +21°C° 0 mm 2 mps 744 mmHg 79%
    05:00 +23°C° 0 mm 2 mps 744 mmHg 75%
    06:00 +24°C° 0 mm 2 mps 744 mmHg 71%
    07:00 +26°C° 0 mm 2 mps 745 mmHg 67%
    08:00 +27°C° 0 mm 3 mps 745 mmHg 60%
    09:00 +28°C° 0 mm 3 mps 745 mmHg 54%
    10:00 +30°C° 0 mm 4 mps 745 mmHg 47%
    11:00 +30°C° 0 mm 3 mps 745 mmHg 46%
    12:00 +31°C° 0 mm 3 mps 745 mmHg 44%
    13:00 +33°C° 0 mm 3 mps 745 mmHg 42%
    14:00 +32°C° 0 mm 4 mps 744 mmHg 42%
    15:00 +32°C° 0 mm 4 mps 744 mmHg 42%
    16:00 +32°C° 0 mm 4 mps 744 mmHg 42%
    17:00 +29°C° 0 mm 4 mps 744 mmHg 48%
    18:00 +27°C° 0 mm 3 mps 744 mmHg 54%
    19:00 +26°C° 0 mm 3 mps 744 mmHg 60%
    20:00 +25°C° 0 mm 3 mps 744 mmHg 60%
    21:00 +24°C° 0 mm 3 mps 744 mmHg 61%
    22:00 +22°C° 0 mm 3 mps 744 mmHg 62%
    23:00 +21°C° 0 mm 3 mps 744 mmHg 64%

    23 July, Tuesday

    Time Temperature Precipitation Wind Pressure Humidity
    00:00 +21°C° 0 mm 2 mps 744 mmHg 66%
    01:00 +20°C° 0 mm 2 mps 744 mmHg 67%
    02:00 +20°C° 0 mm 2 mps 744 mmHg 70%
    03:00 +19°C° 0 mm 3 mps 744 mmHg 73%
    04:00 +18°C° 0 mm 3 mps 744 mmHg 76%
    05:00 +20°C° 0 mm 3 mps 744 mmHg 72%
    06:00 +21°C° 0 mm 3 mps 744 mmHg 68%
    07:00 +24°C° 0 mm 3 mps 744 mmHg 65%
    08:00 +25°C° 0 mm 3 mps 744 mmHg 59%
    09:00 +26°C° 0 mm 3 mps 744 mmHg 54%
    10:00 +28°C° 0 mm 3 mps 744 mmHg 49%
    11:00 +28°C° 0 mm 3 mps 744 mmHg 46%
    12:00 +29°C° 0 mm 3 mps 744 mmHg 42%
    13:00 +30°C° 0 mm 4 mps 743 mmHg 39%
    14:00 +30°C° 0 mm 4 mps 743 mmHg 40%
    15:00 +30°C° 0 mm 4 mps 743 mmHg 41%
    16:00 +29°C° 0 mm 5 mps 742 mmHg 42%
    17:00 +28°C° 0 mm 4 mps 742 mmHg 48%
    18:00 +26°C° 0 mm 3 mps 742 mmHg 54%
    19:00 +25°C° 0 mm 3 mps 742 mmHg 60%
    20:00 +24°C° 0 mm 3 mps 742 mmHg 61%
    21:00 +22°C° 0 mm 3 mps 742 mmHg 63%
    22:00 +21°C° 0 mm 3 mps 742 mmHg 64%
    23:00 +20°C° 0 mm 2 mps 742 mmHg 66%
    Show more